Regional Weather Roundup
Issued by NWS Little Rock, AR

Home | Current Version | Previous Version | Text Only | Print | Product List | Glossary Off
Versions: 1 2 3 4 5 6 7 8 9 10 11 12 13 14 15 16 17 18 19 20 21 22 23 24 25 26 27 28 29 30 31 32 33 34 35 36 37 38 39 40 41 42 43 44 45 46 47 48 49 50

880
ASUS44 KLZK 182005
RWRLZK

WEATHER ROUNDUP FOR ARKANSAS
NATIONAL WEATHER SERVICE LITTLE ROCK AR
300 PM CDT FRI AUG 18 2017

NOTE: "FAIR" INDICATES FEW OR NO CLOUDS BELOW 12,000 FEET WITH NO
SIGNIFICANT WEATHER AND/OR OBSTRUCTIONS TO VISIBILITY.

ARZ001-003-010-029-182100-
NORTHWEST ARKANSAS

CITY           SKY/WX    TMP DP  RH WIND       PRES   REMARKS
FAYETTEVILLE   MOSUNNY   86  75  69 SW8       29.99F HX  95
FORT SMITH     MOSUNNY   92  71  50 VRB6      29.96F HX  98
HARRISON       MOSUNNY   89  65  44 NW7       30.01F HX  91
BENTONVILLE    CLOUDY    86  72  62 SW9       30.01S HX  92
ROGERS         PTSUNNY   87  71  58 VRB3      30.01F HX  93
SILOAM SPGS    CLOUDY    88  72  58 S13       29.98F HX  94
HIGHFILL       MOSUNNY   88  74  63 SW9       29.99F HX  96
SPRINGDALE     MOSUNNY   88  72  58 S12       30.01F HX  94
$$

ARZ004-005-016-182100-
NORTH CENTRAL ARKANSAS

CITY           SKY/WX    TMP DP  RH WIND       PRES   REMARKS
BATESVILLE     PTSUNNY   90  70  51 SW3       29.98S HX  95
FLIPPIN        PTSUNNY   90  66  45 S6        29.96F HX  92
MTN HOME       SUNNY     88  67  49 CALM      29.99F HX  91
$$

ARZ040-041-182100-
WEST CENTRAL ARKANSAS

CITY           SKY/WX    TMP DP  RH WIND       PRES   REMARKS
MENA           SUNNY     91  77  62 CALM      30.01F HX 105
$$

ARZ009-017-025-026-028-182100-
NORTHEAST ARKANSAS

CITY           SKY/WX    TMP DP  RH WIND       PRES   REMARKS
JONESBORO      SUNNY     89  66  46 CALM      29.97F HX  91
NEWPORT        MOSUNNY   89  71  55 VRB6      29.98F HX  95
WALNUT RIDGE   SUNNY     88  63  42 S7        29.97F HX  88
BLYTHEVILLE    SUNNY     89  71  55 NW5       29.98F HX  95
NW BLYTHEVILLE SUNNY     88  63  42 W7        29.98F HX  88
$$

ARZ022-023-033-042-044-182100-
CENTRAL ARKANSAS

CITY           SKY/WX    TMP DP  RH WIND       PRES   REMARKS
LITTLE ROCK    PTSUNNY   90  68  48 SW6       29.97F HX  94
N LITTLE ROCK    N/A     90  73  56 S3        29.98F HX  98
JACKSONVILLE   MOSUNNY   92  71  50 W5        29.97F HX  98
CONWAY           N/A     90  73  58 CALM      29.95F HX  98
SEARCY         MOSUNNY   91  72  53 S5        29.99F HX  98
HOT SPRINGS    SUNNY     92  72  51 W6        29.98F HX  99
RUSSELLVILLE   SUNNY     89  72  56 E3        29.97F HX  96
CLINTON        FAIR      90  72  55 SW7       29.98F HX  96
$$

ARZ036-182100-
EAST ARKANSAS

CITY           SKY/WX    TMP DP  RH WIND       PRES   REMARKS
WEST MEMPHIS   MOSUNNY   87  71  58 CALM      29.97F HX  93
$$

ARZ050-053-066-070-073-182100-
SOUTHWEST ARKANSAS

CITY           SKY/WX    TMP DP  RH WIND       PRES   REMARKS
ARKADELPHIA    MOCLDY    91  79  67 VRB7      29.97F HX 107
CAMDEN         MOSUNNY   95  75  52 VRB5      29.96F HX 107
TEXARKANA      MOSUNNY   91  77  63 W10       29.99F HX 104
EL DORADO      PTSUNNY   92  76  59 SW9       29.98F HX 104
DE QUEEN       MOSUNNY   91  80  70 SW8       29.96F HX 109
$$

ARZ056-057-069-182100-
SOUTHEAST ARKANSAS

CITY           SKY/WX    TMP DP  RH WIND       PRES   REMARKS
PINE BLUFF     MOSUNNY   90  73  57 SW8       29.97F HX  98
MONTICELLO     MOSUNNY   90  76  63 W5        29.97F HX 101

$$






USA.gov is the U.S. government's official web portal to all federal, state and local government web resources and services.